Location: Heilbronn
(49.1548°N, 9.2780°E)
Time: 13:33:05
(UTC+01:00)

ISS - Pass Details

Date: 06 January 2018
Orbit: 402 x 407 km, 51.6° (Epoch: 21 January)

Event Time Altitude Azimuth Distance (km) Brightness Sun altitude
Exits shadow 06:45:58 29° 300° (WNW) 785 -3.0 -14.1°
Maximum altitude 06:47:23 54° 5° (N) 502 -3.5 -13.9°
Drops below altitude 10° 06:50:38 10° 84° (E) 1,470 0.1 -13.4°
Sets 06:52:45 0° 89° (E) 2,331 1.5 -13.1°
